Погода Новотроицкое

Погода Новотроицкое : погода сейчас, прогноз погоды и архив. Всё, что Вы хотите узнать о погоде Новотроицкое!

Хотите узнать прогноз погоды Новотроицкое? Тогда Вам сюда: Погода Новотроицкое

Поиск расширенной информации на нашем сайте:

Другие новости

Новости СМИ2

Главная страница сайта

Новости сайта

03.07.2017

Напоминаем, что на нашем специализированном сайте Метеоцентр.Азия вы можете получить высокодетализированные автоматические прогнозы погоды по пунктам России, СНГ и мира в авиационном формате (включающие направление и скорость ветра, видимость, явления погоды, количество и форму облачности, нижнюю и верхнюю границу облачности).

Рекомендуем: Полог брезентовый 3х5м утепленный www.korona-len.ru.

Погода Новотроицкое - сегодня

Время (UTC), дата Ветер
(°,м/с) 
Видим.   Явления Облачность Т
(°С)
Тd
(°С)
f(%) Тe
(°С)
Pmin
(гПа)
dP
(гПа)
Po
(мм)
O2
(г/м3)
Тmin Tmax R s Состояние
почвы
12 09.12.17 090 (В) 10 км    10/10 600 м 
[Sc]
+3.1 -1.7 71 +3  1024.9  -0.2  727  290           
15 09.12.17 090 (В) 10 км    8/8 1000 м 
[Sc]
+1.3 -1.6 81 +2  1023  -2.1  725  291    +5.2       
18 09.12.17 320 (СЗ) 10 км    6/6 1000 м 
[Sc]
-2.1 -4.6 83 -2  1022  -1.6  724  294    +5.2       
21 09.12.17 270 (З) 10 км    10/10 600 м 
[Sc]
-0.5 -2.6 86 -3  1026.8  4.8  728  294           
00 10.12.17 230 (ЮЗ) 2000 м  снег  10/10 300 м 
[Ns]
-3 -4 93 -4  1033.3  5.6  732  299           
03 10.12.17 180 (Ю) 20000 м    5/5 1000 м 
[Sc]
-4.3 -5.9 89 -6  1037.9  735  301      10  равномерный
сухой снег
100% 
06 10.12.17 140 (ЮВ) 20000 м    ясно 
-1.5 -4.8 78 -2  1036.2  -1  734  298  -4.4       
09 10.12.17 090 (В) 20000 м    3/0 средняя 
[Ac lent]
-0.5 -7.4 60 -1  1034.6  -1.3  733  297           
12 10.12.17 090 (В) 10 км    3/0 средняя 
[Ac lent]
-4.1 -9.5 66 -5  1034.6  -0.8  733  301           
15 10.12.17 140 (ЮВ) 10 км    ясно 
-7.3 -12.2 68 -9  1033.8  -1.3  732  304    +0.2       
18 10.12.17 180 (Ю) 10 км    ясно 
-13.1 -15.8 80 -15  1032.9  -2.2  730  310    +0.2       
21 10.12.17 320 (СЗ) 10 км    ясно 
-14 -16.7 80 -16  1032.6  -0.5  730  311           
00 11.12.17 140 (ЮВ) 10 км    ясно 
-11.6 -13.6 85 -14  1031.7  -0.3  729  308           
03 11.12.17 тихо ()   20000 м    ясно 
-15.3 -16.6 90 -15  1033.8  1.2  730  313        10  равномерный
сухой снег
100% 
06 11.12.17 тихо ()   2000 м  дымка  10/0 средняя 
[Ac As]
-6.5 -8.5 86 -7    731  303  -15.4         
09 11.12.17 тихо ()   20000 м    10/0 средняя 
[Ac As]
-7.1 -10 80 -7  1032.8  -0.2  731  303           
12 11.12.17 320 (СЗ) 10 км    10/0 средняя 
[Ac As]
-8.2 -10.5 83 -10  1033.2  0.1  731  305           
15 11.12.17 360 (С) 10 км    10/10 600 м 
[Sc]
-9 -10.6 88 -9  1032.5  -0.8  730  305    -6.2       
18 11.12.17 320 (СЗ) 10 км    10/10 600 м 
[Sc]
-8.7 -10.2 89 -10  1030.8  -1.5  729  304    -6.2       
21 11.12.17 тихо ()   10 км    ясно 
-8.9 -10.4 89 -9  1030.8  729  305           
00 12.12.17 180 (Ю) 10 км    10/0 средняя 
[Ac As]
-8.5 -10.4 86 -10  1029.3  -1.4  728  304           
03 12.12.17 230 (ЮЗ) 20000 м    10/0 средняя 
[Ac As]
-8.7 -10.6 86 -8  1030.7  1.3  729  304        10  равномерный
сухой снег
100% 
06 12.12.17 тихо ()   20000 м    10/0 средняя 
[Ac As]
-9 -10.6 88 -9  1031.4  0.5  729  305  -9         
09 12.12.17 тихо ()   20000 м    10/0 средняя 
[Ac As]
-8.3 -10.6 83 -8  1030.9  -0.2  729  304           
12 12.12.17 тихо ()   10 км    10/10 600 м 
[Sc]
-8.9 -10.9 85 -9  1033.3  2.1  731  305           
Время (UTC), дата Ветер
(°,м/с) 
Видим.   Явления Облачность Т
(°С)
Тd
(°С)
f(%) Тe
(°С)
Pmin
(гПа)
dP
(гПа)
Po
(мм)
O2
(г/м3)
Тmin Tmax R s Состояние
почвы

Для получения пояснительной информации подведите курсор к названию столбца.

ПОГОДА Новотроицкое - архив

Всё, что Вы хотите узнать о погоде Новотроицкое - удобно и подробно!

Выберите нужную дату (начиная с 1 января 2015* года) и нажмите кнопку "Найти".
Будут отображены архивные сводки погоды по пункту Новотроицкое, начиная с указанной даты.


Отображать данные в формате CSV (для использования в таблицах Excel)


Внимание! Наш архив погоды предназначен исключительно для личного некоммерческого использования в познавательных целях. Если Вам необходимы официальные справки о состоянии погоды (для производственных, юридических, коммерческих и т.п. целей), обращайтесь в органы Росгидромета.

*Примечание: данная дата относится к архиву по метеостанциям СССР (Россия, СНГ, Балтия).
Архив по метеостанциям Зарубежной Европы и Азии (кроме Китая) хранится 10 дней, по другим регионам земного шара (Китай, Африка, Америка, Австралия, Океания) - 1 день.

Новотроицкое - район местоположения метеостанции


Название, широта, долгота, высота метеостанции:
Новотроицкое 43.7°ш. 73.8°д. 456 м над ур. моря [Казахстан]

Дополнительная информация

В oтличие oт бoльшинства пoгoдных сайтoв мы публикуем пoдрoбную метеoинфoрмацию в детальнoм прoфессиoнальнoм фoрмате.

Характеристики температуры и влажнoсти вoздуха измеряются на высoте 2 м в тени вдали oт зданий и деревьев.
Скoрoсть ветра измеряется на высoте 10 м (на урoвне рoста челoвека скoрoсть ветра ниже в 1.5-2 раза). Если метеoстанция нахoдится в гoрoде или в лесу, тo скoрoсть ветра занижена на 2-4 м/с пo сравнению с oткрытым местoм. Скoрoсть ветра над акватoриями крупных рек и oзёр, а также на вершинах хoлмoв на 2-5 м/с выше, чем в oбычных услoвиях.
Атмoсфернoе давление в разных тoчках местнoсти мoжет значительнo oтличаться oт давления на метеoстанции, в зависимoсти oт услoвий рельефа (при пoдъёме на 10 м давление пoнижается примернo на 1 мм рт.ст.).